Time,TemperatureF,DewpointF,PressureIn,WindDirection,WindDirectionDegrees,WindSpeedMPH,WindSpeedGustMPH,Humidity,HourlyPrecipIn,Conditions,Clouds,dailyrainin,SolarRadiationWatts/m^2,SoftwareType,DateUTC
2013-03-26 00:03:00,32.0,29.0,-100.00,WSW,254,8.0,14.0,90,0.00,,,0.46,0.000000,,2013-03-26 04:03:00,
2013-03-26 00:13:00,32.0,29.0,-100.00,WSW,254,8.0,14.0,90,0.00,,,0.46,0.000000,,2013-03-26 04:13:00,
2013-03-26 00:43:00,32.0,30.0,-100.00,West,260,7.0,14.0,91,0.00,,,0.35,0.000000,,2013-03-26 04:43:00,
2013-03-26 00:53:00,32.0,30.0,-100.00,West,260,7.0,14.0,91,0.00,,,0.35,0.000000,,2013-03-26 04:53:00,
2013-03-26 01:02:00,32.0,30.0,-100.00,West,260,7.0,14.0,91,0.00,,,0.35,0.000000,,2013-03-26 05:02:00,
2013-03-26 01:12:00,32.0,30.0,-100.00,West,260,7.0,14.0,91,0.00,,,0.35,0.000000,,2013-03-26 05:12:00,
2013-03-26 01:42:00,31.0,29.0,-100.00,WSW,256,6.0,10.0,92,0.00,,,0.30,0.000000,,2013-03-26 05:42:00,
2013-03-26 01:52:00,31.0,29.0,-100.00,WSW,256,6.0,10.0,92,0.00,,,0.30,0.000000,,2013-03-26 05:52:00,
2013-03-26 02:02:00,31.0,29.0,-100.00,WSW,256,6.0,10.0,92,0.00,,,0.30,0.000000,,2013-03-26 06:02:00,
2013-03-26 02:12:00,31.0,29.0,-100.00,WSW,256,6.0,10.0,92,0.00,,,0.30,0.000000,,2013-03-26 06:12:00,
2013-03-26 02:43:00,31.0,29.0,-100.00,West,259,5.0,13.0,92,0.00,,,0.25,0.000000,,2013-03-26 06:43:00,
2013-03-26 02:53:00,31.0,29.0,-100.00,West,259,5.0,13.0,92,0.00,,,0.25,0.000000,,2013-03-26 06:53:00,
2013-03-26 03:02:00,31.0,29.0,-100.00,West,259,5.0,13.0,92,0.00,,,0.25,0.000000,,2013-03-26 07:02:00,
2013-03-26 03:12:00,31.0,29.0,-100.00,West,259,5.0,13.0,92,0.00,,,0.25,0.000000,,2013-03-26 07:12:00,
2013-03-26 03:43:00,31.0,29.0,-100.00,WSW,250,5.0,10.0,92,0.00,,,0.18,0.000000,,2013-03-26 07:43:00,
2013-03-26 03:53:00,31.0,29.0,-100.00,WSW,250,5.0,10.0,92,0.00,,,0.18,0.000000,,2013-03-26 07:53:00,
2013-03-26 04:02:00,31.0,29.0,-100.00,WSW,250,5.0,10.0,92,0.00,,,0.18,0.000000,,2013-03-26 08:02:00,
2013-03-26 04:12:00,31.0,29.0,-100.00,WSW,250,5.0,10.0,92,0.00,,,0.18,0.000000,,2013-03-26 08:12:00,
2013-03-26 04:42:00,31.0,29.0,-100.00,WSW,256,4.0,9.0,93,0.00,,,0.15,0.000000,,2013-03-26 08:42:00,
2013-03-26 04:52:00,31.0,29.0,-100.00,WSW,256,4.0,9.0,93,0.00,,,0.15,0.000000,,2013-03-26 08:52:00,
2013-03-26 05:02:00,31.0,29.0,-100.00,WSW,256,4.0,9.0,93,0.00,,,0.15,0.000000,,2013-03-26 09:02:00,
2013-03-26 05:12:00,31.0,29.0,-100.00,WSW,256,4.0,9.0,93,0.00,,,0.15,0.000000,,2013-03-26 09:12:00,
2013-03-26 05:43:00,31.0,29.0,-100.00,WSW,250,4.0,8.0,94,0.00,,,0.12,0.000000,,2013-03-26 09:43:00,
2013-03-26 05:52:00,31.0,29.0,-100.00,WSW,250,4.0,8.0,94,0.00,,,0.12,0.000000,,2013-03-26 09:52:00,
2013-03-26 06:03:00,31.0,29.0,-100.00,WSW,250,4.0,8.0,94,0.00,,,0.12,0.000000,,2013-03-26 10:03:00,
2013-03-26 06:12:00,31.0,29.0,-100.00,WSW,250,4.0,8.0,94,0.00,,,0.12,0.000000,,2013-03-26 10:12:00,
2013-03-26 06:43:00,31.0,29.0,-100.00,West,269,4.0,6.0,94,0.00,,,0.09,0.000000,,2013-03-26 10:43:00,
2013-03-26 06:53:00,31.0,29.0,-100.00,West,269,4.0,6.0,94,0.00,,,0.09,0.000000,,2013-03-26 10:53:00,
2013-03-26 07:03:00,31.0,29.0,-100.00,West,269,4.0,6.0,94,0.00,,,0.09,0.000000,,2013-03-26 11:03:00,
2013-03-26 07:12:00,31.0,29.0,-100.00,West,269,4.0,6.0,94,0.00,,,0.09,0.000000,,2013-03-26 11:12:00,
2013-03-26 07:43:00,32.0,30.0,-100.00,West,267,5.0,8.0,94,0.00,,,0.06,0.000000,,2013-03-26 11:43:00,
2013-03-26 07:53:00,32.0,30.0,-100.00,West,267,5.0,8.0,94,0.00,,,0.06,0.000000,,2013-03-26 11:53:00,
2013-03-26 08:03:00,32.0,30.0,-100.00,West,267,5.0,8.0,94,0.00,,,0.06,0.000000,,2013-03-26 12:03:00,
2013-03-26 08:12:00,32.0,30.0,-100.00,West,267,5.0,8.0,94,0.00,,,0.06,0.000000,,2013-03-26 12:12:00,
2013-03-26 08:43:00,32.0,30.0,-100.00,WNW,292,4.0,9.0,93,0.00,,,0.06,2.000000,,2013-03-26 12:43:00,
2013-03-26 08:52:00,32.0,30.0,-100.00,WNW,292,4.0,9.0,93,0.00,,,0.06,2.000000,,2013-03-26 12:52:00,
2013-03-26 09:03:00,32.0,30.0,-100.00,WNW,292,4.0,9.0,93,0.00,,,0.06,2.000000,,2013-03-26 13:03:00,
2013-03-26 09:12:00,32.0,30.0,-100.00,WNW,292,4.0,9.0,93,0.00,,,0.06,2.000000,,2013-03-26 13:12:00,
2013-03-26 09:42:00,32.0,30.0,-100.00,NW,319,3.0,10.0,91,0.00,,,0.05,13.000000,,2013-03-26 13:42:00,
2013-03-26 09:52:00,32.0,30.0,-100.00,NW,319,3.0,10.0,91,0.00,,,0.05,13.000000,,2013-03-26 13:52:00,
2013-03-26 10:02:00,32.0,30.0,-100.00,NW,319,3.0,10.0,91,0.00,,,0.05,13.000000,,2013-03-26 14:02:00,
2013-03-26 10:12:00,32.0,30.0,-100.00,NW,319,3.0,10.0,91,0.00,,,0.05,13.000000,,2013-03-26 14:12:00,
2013-03-26 10:42:00,34.0,30.0,-100.00,NW,317,4.0,9.0,86,0.00,,,0.04,67.000000,,2013-03-26 14:42:00,
2013-03-26 10:53:00,34.0,30.0,-100.00,NW,317,4.0,9.0,86,0.00,,,0.04,67.000000,,2013-03-26 14:53:00,
2013-03-26 11:02:00,34.0,30.0,-100.00,NW,317,4.0,9.0,86,0.00,,,0.04,67.000000,,2013-03-26 15:02:00,
2013-03-26 11:12:00,34.0,30.0,-100.00,NW,317,4.0,9.0,86,0.00,,,0.04,67.000000,,2013-03-26 15:12:00,
2013-03-26 11:43:00,35.0,30.0,-100.00,NNW,327,4.0,9.0,82,0.07,,,0.11,170.000000,,2013-03-26 15:43:00,
2013-03-26 11:53:00,35.0,30.0,-100.00,NNW,327,4.0,9.0,82,0.07,,,0.11,170.000000,,2013-03-26 15:53:00,
2013-03-26 12:03:00,35.0,30.0,-100.00,NNW,327,4.0,9.0,82,0.07,,,0.11,170.000000,,2013-03-26 16:03:00,
2013-03-26 12:13:00,35.0,30.0,-100.00,NNW,327,4.0,9.0,82,0.07,,,0.11,170.000000,,2013-03-26 16:13:00,
2013-03-26 12:43:00,35.0,29.0,-100.00,West,272,7.0,10.0,79,0.07,,,0.17,135.000000,,2013-03-26 16:43:00,
2013-03-26 12:54:00,35.0,29.0,-100.00,West,272,7.0,10.0,79,0.07,,,0.17,135.000000,,2013-03-26 16:54:00,
2013-03-26 13:03:00,35.0,29.0,-100.00,West,272,7.0,10.0,79,0.07,,,0.17,135.000000,,2013-03-26 17:03:00,
2013-03-26 13:12:00,35.0,29.0,-100.00,West,272,7.0,10.0,79,0.07,,,0.17,135.000000,,2013-03-26 17:12:00,
2013-03-26 13:42:00,36.0,29.0,-100.00,West,262,5.0,9.0,77,0.01,,,-99.99,240.000000,,2013-03-26 17:42:00,
2013-03-26 13:53:00,36.0,29.0,-100.00,West,262,5.0,9.0,77,0.01,,,-99.99,240.000000,,2013-03-26 17:53:00,
2013-03-26 14:03:00,36.0,29.0,-100.00,West,262,5.0,9.0,77,0.01,,,-99.99,240.000000,,2013-03-26 18:03:00,
2013-03-26 14:12:00,36.0,29.0,-100.00,West,262,5.0,9.0,77,0.01,,,-99.99,240.000000,,2013-03-26 18:12:00,
2013-03-26 14:42:00,39.0,31.0,-100.00,West,271,7.0,12.0,72,0.00,,,0.17,374.000000,,2013-03-26 18:42:00,
2013-03-26 14:53:00,39.0,31.0,-100.00,West,271,7.0,12.0,72,0.00,,,0.17,374.000000,,2013-03-26 18:53:00,
2013-03-26 15:03:00,39.0,31.0,-100.00,West,271,7.0,12.0,72,0.00,,,0.17,374.000000,,2013-03-26 19:03:00,
2013-03-26 15:12:00,39.0,31.0,-100.00,West,271,7.0,12.0,72,0.00,,,0.17,374.000000,,2013-03-26 19:12:00,
2013-03-26 15:42:00,37.0,28.0,-100.00,WNW,284,6.0,13.0,70,0.01,,,0.18,301.000000,,2013-03-26 19:42:00,
2013-03-26 15:53:00,37.0,28.0,-100.00,WNW,284,6.0,13.0,70,0.01,,,0.18,301.000000,,2013-03-26 19:53:00,
2013-03-26 16:02:00,37.0,28.0,-100.00,WNW,284,6.0,13.0,70,0.01,,,0.18,301.000000,,2013-03-26 20:02:00,
2013-03-26 16:13:00,37.0,28.0,-100.00,WNW,284,6.0,13.0,70,0.01,,,0.18,301.000000,,2013-03-26 20:13:00,
2013-03-26 16:43:00,38.0,31.0,-100.00,West,274,9.0,15.0,76,0.01,,,0.18,303.000000,,2013-03-26 20:43:00,
2013-03-26 16:53:00,38.0,31.0,-100.00,West,274,9.0,15.0,76,0.01,,,0.18,303.000000,,2013-03-26 20:53:00,
2013-03-26 17:02:00,38.0,31.0,-100.00,West,274,9.0,15.0,76,0.01,,,0.18,303.000000,,2013-03-26 21:02:00,
2013-03-26 17:13:00,38.0,31.0,-100.00,West,274,9.0,15.0,76,0.01,,,0.18,303.000000,,2013-03-26 21:13:00,
2013-03-26 17:43:00,37.0,32.0,-100.00,WNW,282,7.0,15.0,81,0.01,,,0.18,148.000000,,2013-03-26 21:43:00,
2013-03-26 17:53:00,37.0,32.0,-100.00,WNW,282,7.0,15.0,81,0.01,,,0.18,148.000000,,2013-03-26 21:53:00,
2013-03-26 18:02:00,37.0,32.0,-100.00,WNW,282,7.0,15.0,81,0.01,,,0.18,148.000000,,2013-03-26 22:02:00,
2013-03-26 18:12:00,37.0,32.0,-100.00,WNW,282,7.0,15.0,81,0.01,,,0.18,148.000000,,2013-03-26 22:12:00,
2013-03-26 18:42:00,37.0,33.0,-100.00,WSW,250,4.0,13.0,86,0.01,,,0.19,104.000000,,2013-03-26 22:42:00,
2013-03-26 18:52:00,37.0,33.0,-100.00,WSW,250,4.0,13.0,86,0.01,,,0.19,104.000000,,2013-03-26 22:52:00,
2013-03-26 19:01:00,37.0,33.0,-100.00,WSW,250,4.0,13.0,86,0.01,,,0.19,104.000000,,2013-03-26 23:01:00,
2013-03-26 19:10:00,37.0,33.0,-100.00,WSW,250,4.0,13.0,86,0.01,,,0.19,104.000000,,2013-03-26 23:10:00,
2013-03-26 19:43:00,35.0,31.0,-100.00,West,263,6.0,12.0,85,0.02,,,0.21,25.000000,,2013-03-26 23:43:00,
2013-03-26 19:53:00,35.0,31.0,-100.00,West,263,6.0,12.0,85,0.02,,,0.21,25.000000,,2013-03-26 23:53:00,
2013-03-26 20:02:00,35.0,31.0,-100.00,West,263,6.0,12.0,85,0.02,,,0.21,25.000000,,2013-03-27 00:02:00,
2013-03-26 20:12:00,35.0,31.0,-100.00,West,263,6.0,12.0,85,0.02,,,0.21,25.000000,,2013-03-27 00:12:00,
2013-03-26 20:42:00,34.0,30.0,-100.00,West,278,6.0,10.0,84,0.00,,,0.21,4.000000,,2013-03-27 00:42:00,
2013-03-26 20:52:00,34.0,30.0,-100.00,West,278,6.0,10.0,84,0.00,,,0.21,4.000000,,2013-03-27 00:52:00,
2013-03-26 21:02:00,34.0,30.0,-100.00,West,278,6.0,10.0,84,0.00,,,0.21,4.000000,,2013-03-27 01:02:00,
2013-03-26 21:12:00,34.0,30.0,-100.00,West,278,6.0,10.0,84,0.00,,,0.21,4.000000,,2013-03-27 01:12:00,
2013-03-26 21:43:00,34.0,29.0,-100.00,SW,231,2.0,12.0,83,0.00,,,0.21,0.000000,,2013-03-27 01:43:00,
2013-03-26 21:53:00,34.0,29.0,-100.00,SW,231,2.0,12.0,83,0.00,,,0.21,0.000000,,2013-03-27 01:53:00,
2013-03-26 22:03:00,34.0,29.0,-100.00,SW,231,2.0,12.0,83,0.00,,,0.21,0.000000,,2013-03-27 02:03:00,
2013-03-26 22:12:00,34.0,29.0,-100.00,SW,231,2.0,12.0,83,0.00,,,0.21,0.000000,,2013-03-27 02:12:00,
2013-03-26 22:43:00,34.0,29.0,-100.00,West,270,3.0,7.0,82,0.01,,,0.22,0.000000,,2013-03-27 02:43:00,
2013-03-26 22:53:00,34.0,29.0,-100.00,West,270,3.0,7.0,82,0.01,,,0.22,0.000000,,2013-03-27 02:53:00,
2013-03-26 23:02:00,34.0,29.0,-100.00,West,270,3.0,7.0,82,0.01,,,0.22,0.000000,,2013-03-27 03:02:00,
2013-03-26 23:12:00,34.0,29.0,-100.00,West,270,3.0,7.0,82,0.01,,,0.22,0.000000,,2013-03-27 03:12:00,
2013-03-26 23:43:00,34.0,29.0,-100.00,WSW,249,4.0,7.0,81,0.00,,,0.22,0.000000,,2013-03-27 03:43:00,
2013-03-26 23:53:00,34.0,29.0,-100.00,WSW,249,4.0,7.0,81,0.00,,,0.22,0.000000,,2013-03-27 03:53:00,